Regional Weather Roundup
Issued by NWS

Home | Current Version | Previous Version | Graphics & Text | Print | Product List | Glossary On
Versions: 1 2 3 4 5 6 7 8 9 10 11 12 13 14 15 16 17 18 19 20 21 22 23 24 25 26 27 28 29 30 31 32 33 34 35 36 37 38 39 40 41 42 43 44 45 46 47 48 49 50
989
ASUS45 KSLC 262310
RWRUT

UTAH REGIONAL WEATHER ROUNDUP
NATIONAL WEATHER SERVICE SALT LAKE CITY UT
500 PM MDT THU APR 26 2018

UTZ001>011-023>025-270000-

NORTHERN UTAH

CITY           SKY/WX    TMP DP  RH WIND       PRES   REMARKS
BRIGHAM CITY   SUNNY     74  21  13 NW8       30.10F
HILL AFB       NOT AVBL
LOGAN          SUNNY     72  34  24 VRB5      30.11F
OGDEN          SUNNY     73  28  18 MISG      30.10F
SALT LAKE CITY MOSUNNY   76  32  20 N14       30.09F
TOOELE VALLEY  SUNNY     70  34  26 N8        30.11F
WENDOVER       SUNNY     75  19  12 E7        30.10F
HEBER CITY       N/A     73  19  13 CALM      30.10F
WEST JORDAN    SUNNY     71  37  29 NW9       30.11F

$$

UTZ011>015-024>027-270000-

CENTRAL/NORTHEAST UTAH

CITY           SKY/WX    TMP DP  RH WIND       PRES   REMARKS
PROVO AIRPORT  SUNNY     74  28  18 W7        30.09F
MOAB/CANYONLAN SUNNY     75  18  11 S8        30.06F
DELTA          SUNNY     75  14   9 NE5       30.08F
PRICE          SUNNY     72  13  10 VRB3      30.13F
RICHFIELD      SUNNY     77  14   9 NE13G20   30.06F
ROOSEVELT      SUNNY     70  21  16 E7        30.19F
VERNAL         SUNNY     69  25  19 VRB7      30.17F

$$

UTZ013>016-019>022-027-270000-

SOUTHERN UTAH

CITY           SKY/WX    TMP DP  RH WIND       PRES   REMARKS
BRYCE CANYON   SUNNY     72  13  10 MISG      30.19F
CEDAR CITY     SUNNY     77  18  11 NW6G16    30.07F
MILFORD        SUNNY     77  21  12 N10G18    30.07F
ST GEORGE      CLEAR     91  26   9 W5        29.88F
HANKSVILLE     SUNNY     79  14   8 NE8       30.09F
KANAB          SUNNY     84  18   8 W6        30.05F
BLANDING         N/A     75   8   7 NW7G18    30.16F

$$

REGIONAL REPORTS     COLORADO/ARIZONA

CITY           SKY/WX    TMP DP  RH WIND       PRES   REMARKS
CRAIG, CO      SUNNY     63  24  22 VRB5      30.23F
GRAND JUNCTION SUNNY     74  22  14 W10       30.09F
RIFLE, CO      SUNNY     69  18  14 VRB5      30.15F
MONTROSE, CO   SUNNY     69  13  11 N7        30.16F
CORTEZ, CO     SUNNY     77  -1   5 NW9G23    30.07F
COLORADO CITY    N/A     86  23  10 NW5G17    30.04F
PAGE, AZ       SUNNY     83  10   6 VRB6      30.01F
GRAND CANYON   SUNNY     74  14  10 W7        30.13F
KINGMAN, AZ    SUNNY     91  24   9 SW14G28   29.91F
FLAGSTAFF, AZ  MOSUNNY   73  21  14 SW10      30.14F

$$

REGIONAL REPORTS    NEVADA/IDAHO/WYOMING

CITY           SKY/WX    TMP DP  RH WIND       PRES   REMARKS
LAS VEGAS, NV  MOSUNNY   94  22   7 CALM      29.83F
ELY, NY        SUNNY     75  12   9 VRB3      30.10F
ELKO, NV       SUNNY     77  27  15 NE8       30.07F
POCATELLO, ID  SUNNY     71  18  13 NW8       30.14F
BURLEY, ID     SUNNY     73  23  15 VRB7G22   30.09F
FORT BRIDGER,    N/A     65  15  14 NE7       30.27F
EVANSTON, WY   SUNNY     66  20  17 NW8       30.23F
ROCK SPRINGS,  SUNNY     63  15  15 NE6       30.24F
KEMMERER, WY   SUNNY     63  12  14 CALM      30.26F

$$




USA.gov is the U.S. government's official web portal to all federal, state and local government web resources and services.